SERVIS 2 DEB, 43394

Orbit data source: Space-Track

SERVIS 2 DEB, 43394 is space debris in SSO originally from a launch on Wed, 02 Jun 2010 UTC launched from the Plesetsk Missile And Space Complex (PKMTR). Debris objects in space refer to the collection of defunct objects orbiting the Earth. Examples of debris include non-operational satellites, rocket bodies, and fragments generated from explosions, collisions, or faulty payload assembly.

Loading next visibility...
Identifier
43394, 2010-023D
Orbit
SSO
Country
Flag of CISCIS
Related business
Manufacturer
MELCO
Mission
Spacecraft
Bus & Motor
Unknown
Mass
Unknown
Launch date (UTC)
2010-06-02 (15 years ago)
Launch vehicle
Unknown
Launch site
Plesetsk Missile And Space Complex (PKMTR)
Object type
Payload
Rocket body
Debris
Shape & HBR
Unknown
Radar Cross Section
Small (<0.1 m²)

Expand to show TLE details & history
Last TLE update: 19 hours ago

TLE from 19 hours ago
0 SERVIS 2 DEB
1 43394U 10023D   25257.30455961  .00004897  00000-0  70260-2 0  9998
2 43394 100.5121 263.6567 0016665 301.8885  58.0628 13.56307779 60224
Epoch: 2025-09-14T07:18Z
TLE epoch observation values (Epoch: 2025-09-14T07:18:33.95Z)
Latitude
-0.00003°
Longitude
160.48976°
Altitude
1,045.372 km
Speed
7.332 km/s
True Right ascension
17h 34m 37s
True Declination
0° 00' 00"
Sunlit
Object was in daylight at epoch
Visualization orbit readout
Latitude
Unknown
Longitude
Unknown
Altitude
Unknown
Speed
Unknown
Apparent Right ascension
Unknown
Apparent Declination
Unknown
Sunlit
N/A
Visualization observer readout
Local Sidereal Time
18:49:10
Azimuth
Unknown
Elevation
Unknown
Doppler factor
Unknown
Orbital elements
Apogee altitude
1,058.85 km
Perigee altitude
1,034.104 km
Semi-major axis
7,424.614 km
Eccentricity
0.00167
Inclination
100.5121°
RAAN
263.6567°
Arg. of periapsis
301.8885°
True anomaly
58.22504°
Mean anomaly
58.0628°
Eccentric anomaly
58.1439°
Mean motion
3.3926 °/min
Orbital period
106.11 mins
BSTAR
0.007026
Loading maneuver chart data...
Computing Atmospheric mass density...
Loading historical data...
Loading historical data...
Loading historical data...
Loading historical data...
Loading historical data...
Loading historical data...
Loading historical data...
Other satellites on launch #23 in the year 2010 (2010-06-02 UTC)

Documentation

Showing up to 5 results
|